Year,Month,Day,Hour,Minute,Value (Times are PST for temperature in C)
2019,04,11,12,07,9.80
2019,04,11,12,08,9.80
2019,04,11,12,09,9.80
2019,04,11,12,10,9.70
2019,04,11,12,11,9.70
2019,04,11,12,12,9.70
2019,04,11,12,13,9.70
2019,04,11,12,14,9.70
2019,04,11,12,15,9.80
2019,04,11,12,16,9.80
2019,04,11,12,17,9.80
2019,04,11,12,18,9.80
2019,04,11,12,19,9.80
2019,04,11,12,20,9.90
2019,04,11,12,21,9.90
2019,04,11,12,22,9.90
2019,04,11,12,23,9.90
2019,04,11,12,24,9.90
2019,04,11,12,25,9.90
2019,04,11,12,26,9.90
2019,04,11,12,27,9.90
2019,04,11,12,28,9.90
2019,04,11,12,29,9.90
2019,04,11,12,30,9.90
2019,04,11,12,31,9.90
2019,04,11,12,32,9.90
2019,04,11,12,33,9.90
2019,04,11,12,34,9.90
2019,04,11,12,35,9.90
2019,04,11,12,36,9.90
2019,04,11,12,37,9.90
2019,04,11,12,38,9.90
2019,04,11,12,39,9.90
2019,04,11,12,40,9.90
2019,04,11,12,41,9.90
2019,04,11,12,42,9.90
2019,04,11,12,43,9.90
2019,04,11,12,44,9.90
2019,04,11,12,45,9.90
2019,04,11,12,46,9.90
2019,04,11,12,47,9.90
2019,04,11,12,48,9.90
2019,04,11,12,49,9.90
2019,04,11,12,50,9.90
2019,04,11,12,51,9.90
2019,04,11,12,52,9.90
2019,04,11,12,53,9.90
2019,04,11,12,54,9.80
2019,04,11,12,55,9.80
2019,04,11,12,56,9.80
2019,04,11,12,57,9.70
2019,04,11,12,58,9.70
2019,04,11,12,59,9.70
2019,04,11,13,00,9.70
2019,04,11,13,01,9.70
2019,04,11,13,02,9.70
2019,04,11,13,03,9.70
2019,04,11,13,04,9.70
2019,04,11,13,05,9.60
2019,04,11,13,06,9.60
2019,04,11,13,07,9.60
2019,04,11,13,08,9.60
2019,04,11,13,09,9.70
2019,04,11,13,10,9.70
2019,04,11,13,11,9.70
2019,04,11,13,12,9.70
2019,04,11,13,13,9.70
2019,04,11,13,14,9.70
2019,04,11,13,15,9.70
2019,04,11,13,16,9.70
2019,04,11,13,17,9.70
2019,04,11,13,18,9.70
2019,04,11,13,19,9.70
2019,04,11,13,20,9.70
2019,04,11,13,21,9.70
2019,04,11,13,22,9.70
2019,04,11,13,23,9.70
2019,04,11,13,24,9.70
2019,04,11,13,25,9.80
2019,04,11,13,26,9.80
2019,04,11,13,27,9.80
2019,04,11,13,28,9.80
2019,04,11,13,29,9.80
2019,04,11,13,30,9.80
2019,04,11,13,31,9.80
2019,04,11,13,32,9.80
2019,04,11,13,33,9.80
2019,04,11,13,34,9.80
2019,04,11,13,35,9.80
2019,04,11,13,36,9.80
2019,04,11,13,37,9.90
2019,04,11,13,38,9.90
2019,04,11,13,39,9.90
2019,04,11,13,40,9.90
2019,04,11,13,41,9.90
2019,04,11,13,42,9.90
2019,04,11,13,43,9.90
2019,04,11,13,44,9.90
2019,04,11,13,45,9.90
2019,04,11,13,46,10.00
2019,04,11,13,47,10.00
2019,04,11,13,48,10.00
2019,04,11,13,49,10.00
2019,04,11,13,50,10.00
2019,04,11,13,51,10.00
2019,04,11,13,52,10.00
2019,04,11,13,53,10.10
2019,04,11,13,54,10.10
2019,04,11,13,55,10.10
2019,04,11,13,56,10.20
2019,04,11,13,57,10.20
2019,04,11,13,58,10.20
2019,04,11,13,59,10.20
2019,04,11,14,00,10.20
2019,04,11,14,01,10.20
2019,04,11,14,02,10.20
2019,04,11,14,03,10.20
2019,04,11,14,04,10.20
2019,04,11,14,05,10.30
2019,04,11,14,06,10.30
2019,04,11,14,07,10.30
2019,04,11,14,08,10.30
2019,04,11,14,09,10.30
2019,04,11,14,10,10.20
2019,04,11,14,11,10.20
2019,04,11,14,12,10.20
2019,04,11,14,13,10.20
2019,04,11,14,14,10.20
2019,04,11,14,15,10.20
2019,04,11,14,16,10.20
2019,04,11,14,17,10.20
2019,04,11,14,18,10.20
2019,04,11,14,19,10.20
2019,04,11,14,20,10.30
2019,04,11,14,21,10.30
2019,04,11,14,22,10.30
2019,04,11,14,23,10.30
2019,04,11,14,24,10.30
2019,04,11,14,25,10.30
2019,04,11,14,26,10.30
2019,04,11,14,27,10.30
2019,04,11,14,28,10.30
2019,04,11,14,29,10.30
2019,04,11,14,30,10.30
2019,04,11,14,31,10.30
2019,04,11,14,32,10.30
2019,04,11,14,33,10.30
2019,04,11,14,34,10.30
2019,04,11,14,35,10.30
2019,04,11,14,36,10.30
2019,04,11,14,37,10.30
2019,04,11,14,38,10.30
2019,04,11,14,39,10.30
2019,04,11,14,40,10.30
2019,04,11,14,41,10.30
2019,04,11,14,42,10.30
2019,04,11,14,43,10.30
2019,04,11,14,44,10.30
2019,04,11,14,45,10.30
2019,04,11,14,46,10.30
2019,04,11,14,47,10.30
2019,04,11,14,48,10.30
2019,04,11,14,49,10.30
2019,04,11,14,50,10.30
2019,04,11,14,51,10.40
2019,04,11,14,52,10.40
2019,04,11,14,53,10.40
2019,04,11,14,54,10.40
2019,04,11,14,55,10.40
2019,04,11,14,56,10.40
2019,04,11,14,57,10.40
2019,04,11,14,58,10.40
2019,04,11,14,59,10.40
2019,04,11,15,00,10.40
2019,04,11,15,01,10.30
2019,04,11,15,02,10.30
2019,04,11,15,03,10.30
2019,04,11,15,04,10.30
2019,04,11,15,05,10.30
2019,04,11,15,06,10.30
2019,04,11,15,07,10.30
2019,04,11,15,08,10.30
2019,04,11,15,09,10.30
2019,04,11,15,10,10.30
2019,04,11,15,11,10.30
2019,04,11,15,12,10.30
2019,04,11,15,13,10.30
2019,04,11,15,14,10.30
2019,04,11,15,15,10.30
2019,04,11,15,16,10.30
2019,04,11,15,17,10.30
2019,04,11,15,18,10.30
2019,04,11,15,19,10.30
2019,04,11,15,20,10.30
2019,04,11,15,21,10.30
2019,04,11,15,22,10.30
2019,04,11,15,23,10.30
2019,04,11,15,24,10.30
2019,04,11,15,25,10.30
2019,04,11,15,26,10.30
2019,04,11,15,27,10.30
2019,04,11,15,28,10.40
2019,04,11,15,29,10.40
2019,04,11,15,30,10.40
2019,04,11,15,31,10.40
2019,04,11,15,32,10.40
2019,04,11,15,33,10.40
2019,04,11,15,34,10.40
2019,04,11,15,35,10.40
2019,04,11,15,36,10.40
2019,04,11,15,37,10.30
2019,04,11,15,38,10.40
2019,04,11,15,39,10.40
2019,04,11,15,40,10.40
2019,04,11,15,41,10.40
2019,04,11,15,42,10.40
2019,04,11,15,43,10.40
2019,04,11,15,44,10.40
2019,04,11,15,45,10.40
2019,04,11,15,46,10.40
2019,04,11,15,47,10.40
2019,04,11,15,48,10.40
2019,04,11,15,49,10.40
2019,04,11,15,50,10.40
2019,04,11,15,51,10.40
2019,04,11,15,52,10.40
2019,04,11,15,53,10.40
2019,04,11,15,54,10.30
2019,04,11,15,55,10.30
2019,04,11,15,56,10.30
2019,04,11,15,57,10.30
2019,04,11,15,58,10.30
2019,04,11,15,59,10.30
2019,04,11,16,00,10.30
2019,04,11,16,01,10.30
2019,04,11,16,02,10.30
2019,04,11,16,03,10.30
2019,04,11,16,04,10.30
2019,04,11,16,05,10.40
2019,04,11,16,06,10.40
2019,04,11,16,07,10.40
2019,04,11,16,08,10.40
2019,04,11,16,09,10.40
2019,04,11,16,10,10.40
2019,04,11,16,11,10.40
2019,04,11,16,12,10.40
2019,04,11,16,13,10.40
2019,04,11,16,14,10.40
2019,04,11,16,15,10.40
2019,04,11,16,16,10.40
2019,04,11,16,17,10.50
2019,04,11,16,18,10.50
2019,04,11,16,19,10.40
2019,04,11,16,20,10.40
2019,04,11,16,21,10.40
2019,04,11,16,22,10.40
2019,04,11,16,23,10.40
2019,04,11,16,24,10.30
2019,04,11,16,25,10.30
2019,04,11,16,26,10.30
2019,04,11,16,27,10.30
2019,04,11,16,28,10.30
2019,04,11,16,29,10.30
2019,04,11,16,30,10.30
2019,04,11,16,31,10.30
2019,04,11,16,32,10.30
2019,04,11,16,33,10.30
2019,04,11,16,34,10.30
2019,04,11,16,35,10.30
2019,04,11,16,36,10.30
2019,04,11,16,37,10.30
2019,04,11,16,38,10.30
2019,04,11,16,39,10.30
2019,04,11,16,40,10.30
2019,04,11,16,41,10.40
2019,04,11,16,42,10.40
2019,04,11,16,43,10.40
2019,04,11,16,44,10.40
2019,04,11,16,45,10.40
2019,04,11,16,46,10.40
2019,04,11,16,47,10.30
2019,04,11,16,48,10.30
2019,04,11,16,49,10.30
2019,04,11,16,50,10.20
2019,04,11,16,51,10.20
2019,04,11,16,52,10.20
2019,04,11,16,53,10.30
2019,04,11,16,54,10.30
2019,04,11,16,55,10.30
2019,04,11,16,56,10.30
2019,04,11,16,57,10.30
2019,04,11,16,58,10.30
2019,04,11,16,59,10.30
2019,04,11,17,00,10.30
2019,04,11,17,01,10.30
2019,04,11,17,02,10.30
2019,04,11,17,03,10.30
2019,04,11,17,04,10.30
2019,04,11,17,05,10.30
2019,04,11,17,06,10.30
2019,04,11,17,07,10.30
2019,04,11,17,08,10.30
2019,04,11,17,09,10.30
2019,04,11,17,10,10.30
2019,04,11,17,11,10.30
2019,04,11,17,12,10.30
2019,04,11,17,13,10.30
2019,04,11,17,14,10.30
2019,04,11,17,15,10.30
2019,04,11,17,16,10.20
2019,04,11,17,17,10.20
2019,04,11,17,18,10.20
2019,04,11,17,19,10.20
2019,04,11,17,20,10.20
2019,04,11,17,21,10.20
2019,04,11,17,22,10.20
2019,04,11,17,23,10.20
2019,04,11,17,24,10.20
2019,04,11,17,25,10.20
2019,04,11,17,26,10.20
2019,04,11,17,27,10.20
2019,04,11,17,28,10.20
2019,04,11,17,29,10.20
2019,04,11,17,30,10.20
2019,04,11,17,31,10.20
2019,04,11,17,32,10.20
2019,04,11,17,33,10.20
2019,04,11,17,34,10.20
2019,04,11,17,35,10.20
2019,04,11,17,36,10.20
2019,04,11,17,37,10.20
2019,04,11,17,38,10.20
2019,04,11,17,39,10.20
2019,04,11,17,40,10.20
2019,04,11,17,41,10.20
2019,04,11,17,42,10.20
2019,04,11,17,43,10.20
